Time,TemperatureF,DewpointF,PressureIn,WindDirection,WindDirectionDegrees,WindSpeedMPH,WindSpeedGustMPH,Humidity,HourlyPrecipIn,Conditions,Clouds,dailyrainin,SoftwareType,DateUTC
2013-01-07 00:02:00,17.0,13.0,-100.00,SSE,165,13.0,15.0,84,0.00,,,-99.99,,2013-01-07 06:02:00,
2013-01-07 00:12:00,17.0,14.0,-100.00,SSE,160,12.0,15.0,84,0.00,,,-99.99,,2013-01-07 06:12:00,
2013-01-07 00:22:00,17.0,14.0,-100.00,SSE,165,11.0,16.0,84,0.00,,,-99.99,,2013-01-07 06:22:00,
2013-01-07 00:32:00,18.0,14.0,-100.00,SSE,165,12.0,14.0,84,0.00,,,-99.99,,2013-01-07 06:32:00,
2013-01-07 00:42:00,18.0,14.0,-100.00,SSE,165,12.0,14.0,84,0.00,,,-99.99,,2013-01-07 06:42:00,
2013-01-07 00:52:00,18.0,14.0,-100.00,SSE,165,13.0,16.0,84,0.00,,,-99.99,,2013-01-07 06:52:00,
2013-01-07 01:02:00,18.0,14.0,-100.00,SSE,165,13.0,16.0,84,0.00,,,-99.99,,2013-01-07 07:02:00,
2013-01-07 01:12:00,18.0,14.0,-100.00,SSE,165,11.0,14.0,84,0.00,,,-99.99,,2013-01-07 07:12:00,
2013-01-07 01:22:00,20.0,16.0,-100.00,South,175,17.0,19.0,84,0.00,,,-99.99,,2013-01-07 07:22:00,
2013-01-07 01:33:00,21.0,17.0,-100.00,South,175,16.0,20.0,83,0.00,,,-99.99,,2013-01-07 07:33:00,
2013-01-07 01:42:00,22.0,17.0,-100.00,South,170,15.0,18.0,83,0.00,,,-99.99,,2013-01-07 07:42:00,
2013-01-07 01:52:00,21.0,17.0,-100.00,SSE,165,14.0,17.0,82,0.00,,,-99.99,,2013-01-07 07:52:00,
2013-01-07 02:03:00,21.0,17.0,-100.00,SSE,165,14.0,17.0,82,0.00,,,-99.99,,2013-01-07 08:03:00,
2013-01-07 02:12:00,22.0,18.0,-100.00,SSE,165,14.0,17.0,82,0.00,,,-99.99,,2013-01-07 08:12:00,
2013-01-07 02:22:00,23.0,18.0,-100.00,South,185,11.0,17.0,81,0.00,,,-99.99,,2013-01-07 08:22:00,
2013-01-07 02:32:00,26.0,20.0,-100.00,SSW,195,15.0,22.0,77,0.00,,,-99.99,,2013-01-07 08:32:00,
2013-01-07 02:42:00,26.0,20.0,-100.00,SSW,195,15.0,22.0,77,0.00,,,-99.99,,2013-01-07 08:42:00,
2013-01-07 02:52:00,28.0,21.0,-100.00,SSW,195,18.0,24.0,74,0.00,,,-99.99,,2013-01-07 08:52:00,
2013-01-07 03:02:00,28.0,21.0,-100.00,SSW,195,18.0,24.0,74,0.00,,,-99.99,,2013-01-07 09:02:00,
2013-01-07 03:12:00,28.0,21.0,-100.00,SSW,195,19.0,28.0,74,0.00,,,-99.99,,2013-01-07 09:12:00,
2013-01-07 03:22:00,28.0,21.0,-100.00,South,190,21.0,26.0,73,0.00,,,-99.99,,2013-01-07 09:22:00,
2013-01-07 03:32:00,29.0,22.0,-100.00,SSW,200,21.0,26.0,73,0.00,,,-99.99,,2013-01-07 09:32:00,
2013-01-07 03:42:00,29.0,22.0,-100.00,SSW,200,21.0,26.0,73,0.00,,,-99.99,,2013-01-07 09:42:00,
2013-01-07 03:52:00,30.0,22.0,-100.00,SSW,205,18.0,22.0,72,0.00,,,-99.99,,2013-01-07 09:52:00,
2013-01-07 04:02:00,30.0,22.0,-100.00,SSW,205,18.0,22.0,72,0.00,,,-99.99,,2013-01-07 10:02:00,
2013-01-07 04:12:00,30.0,22.0,-100.00,SSW,210,16.0,21.0,71,0.00,,,-99.99,,2013-01-07 10:12:00,
2013-01-07 04:22:00,30.0,22.0,-100.00,SW,220,14.0,19.0,70,0.00,,,-99.99,,2013-01-07 10:22:00,
2013-01-07 04:32:00,30.0,21.0,-100.00,SW,215,13.0,16.0,68,0.00,,,-99.99,,2013-01-07 10:32:00,
2013-01-07 04:42:00,30.0,21.0,-100.00,SW,215,13.0,16.0,68,0.00,,,-99.99,,2013-01-07 10:42:00,
2013-01-07 04:52:00,29.0,20.0,-100.00,South,185,16.0,19.0,70,0.00,,,-99.99,,2013-01-07 10:52:00,
2013-01-07 05:02:00,29.0,20.0,-100.00,South,185,16.0,19.0,70,0.00,,,-99.99,,2013-01-07 11:02:00,
2013-01-07 05:12:00,29.0,20.0,-100.00,SSW,195,12.0,18.0,70,0.00,,,-99.99,,2013-01-07 11:12:00,
2013-01-07 05:22:00,29.0,21.0,-100.00,SSW,195,14.0,19.0,70,0.00,,,-99.99,,2013-01-07 11:22:00,
2013-01-07 05:32:00,28.0,20.0,-100.00,SSW,205,16.0,19.0,71,0.00,,,-99.99,,2013-01-07 11:32:00,
2013-01-07 05:43:00,28.0,20.0,-100.00,SSW,205,16.0,19.0,71,0.00,,,-99.99,,2013-01-07 11:43:00,
2013-01-07 05:52:00,28.0,20.0,-100.00,SSW,195,17.0,19.0,72,0.00,,,-99.99,,2013-01-07 11:52:00,
2013-01-07 06:03:00,28.0,20.0,-100.00,SSW,195,17.0,19.0,72,0.00,,,-99.99,,2013-01-07 12:03:00,
2013-01-07 06:12:00,27.0,20.0,-100.00,SSW,205,16.0,20.0,72,0.00,,,-99.99,,2013-01-07 12:12:00,
2013-01-07 06:22:00,27.0,20.0,-100.00,SSW,210,17.0,19.0,73,0.00,,,-99.99,,2013-01-07 12:22:00,
2013-01-07 06:33:00,27.0,19.0,-100.00,SW,220,14.0,17.0,73,0.00,,,-99.99,,2013-01-07 12:33:00,
2013-01-07 06:43:00,27.0,19.0,-100.00,SW,220,14.0,17.0,73,0.00,,,-99.99,,2013-01-07 12:43:00,
2013-01-07 06:52:00,27.0,20.0,-100.00,SW,220,13.0,16.0,72,0.00,,,-99.99,,2013-01-07 12:52:00,
2013-01-07 07:02:00,27.0,20.0,-100.00,SW,220,13.0,16.0,72,0.00,,,-99.99,,2013-01-07 13:02:00,
2013-01-07 07:12:00,27.0,20.0,-100.00,SW,220,10.0,16.0,72,0.00,,,-99.99,,2013-01-07 13:12:00,
2013-01-07 07:23:00,26.0,18.0,-100.00,SSW,210,7.0,9.0,72,0.00,,,-99.99,,2013-01-07 13:23:00,
2013-01-07 07:33:00,25.0,18.0,-100.00,SSW,210,10.0,15.0,75,0.00,,,-99.99,,2013-01-07 13:33:00,
2013-01-07 07:42:00,25.0,18.0,-100.00,SSW,210,10.0,15.0,75,0.00,,,-99.99,,2013-01-07 13:42:00,
2013-01-07 07:52:00,26.0,19.0,-100.00,SW,225,12.0,15.0,76,0.00,,,-99.99,,2013-01-07 13:52:00,
2013-01-07 08:03:00,26.0,19.0,-100.00,SW,225,12.0,15.0,76,0.00,,,-99.99,,2013-01-07 14:03:00,
2013-01-07 08:12:00,27.0,20.0,-100.00,SW,230,11.0,14.0,76,0.00,,,-99.99,,2013-01-07 14:12:00,
2013-01-07 08:22:00,28.0,21.0,-100.00,SW,220,14.0,19.0,74,0.00,,,-99.99,,2013-01-07 14:22:00,
2013-01-07 08:33:00,29.0,22.0,-100.00,SW,235,14.0,20.0,72,0.00,,,-99.99,,2013-01-07 14:33:00,
2013-01-07 08:42:00,29.0,22.0,-100.00,SW,235,14.0,20.0,72,0.00,,,-99.99,,2013-01-07 14:42:00,
2013-01-07 08:53:00,29.0,21.0,-100.00,WSW,240,14.0,19.0,72,0.00,,,-99.99,,2013-01-07 14:53:00,
2013-01-07 09:03:00,29.0,21.0,-100.00,WSW,240,14.0,19.0,72,0.00,,,-99.99,,2013-01-07 15:03:00,
2013-01-07 09:12:00,29.0,22.0,-100.00,SW,230,16.0,20.0,72,0.00,,,-99.99,,2013-01-07 15:12:00,
2013-01-07 09:22:00,30.0,22.0,-100.00,SW,235,16.0,22.0,72,0.00,,,-99.99,,2013-01-07 15:22:00,
2013-01-07 09:33:00,30.0,22.0,-100.00,SW,235,14.0,19.0,72,0.00,,,-99.99,,2013-01-07 15:33:00,
2013-01-07 09:42:00,30.0,22.0,-100.00,SW,235,14.0,19.0,72,0.00,,,-99.99,,2013-01-07 15:42:00,
2013-01-07 09:53:00,29.0,22.0,-100.00,WSW,240,13.0,16.0,72,0.00,,,-99.99,,2013-01-07 15:53:00,
2013-01-07 10:02:00,29.0,22.0,-100.00,WSW,240,13.0,16.0,72,0.00,,,-99.99,,2013-01-07 16:02:00,
2013-01-07 10:12:00,30.0,22.0,-100.00,WSW,240,14.0,17.0,73,0.00,,,-99.99,,2013-01-07 16:12:00,
2013-01-07 10:22:00,30.0,22.0,-100.00,SW,235,14.0,17.0,73,0.00,,,-99.99,,2013-01-07 16:22:00,
2013-01-07 10:33:00,31.0,23.0,-100.00,WSW,240,14.0,16.0,72,0.00,,,-99.99,,2013-01-07 16:33:00,
2013-01-07 10:43:00,31.0,23.0,-100.00,WSW,240,13.0,17.0,72,0.00,,,-99.99,,2013-01-07 16:43:00,
2013-01-07 10:53:00,31.0,23.0,-100.00,WSW,250,12.0,16.0,72,0.00,,,-99.99,,2013-01-07 16:53:00,
2013-01-07 11:02:00,31.0,23.0,-100.00,WSW,250,12.0,16.0,72,0.00,,,-99.99,,2013-01-07 17:02:00,
2013-01-07 11:12:00,31.0,23.0,-100.00,WSW,255,14.0,17.0,72,0.00,,,-99.99,,2013-01-07 17:12:00,
2013-01-07 11:23:00,31.0,24.0,-100.00,West,280,14.0,18.0,72,0.00,,,-99.99,,2013-01-07 17:23:00,
2013-01-07 11:33:00,31.0,23.0,-100.00,West,265,12.0,17.0,72,0.00,,,-99.99,,2013-01-07 17:33:00,
2013-01-07 11:42:00,31.0,23.0,-100.00,West,265,12.0,17.0,72,0.00,,,-99.99,,2013-01-07 17:42:00,
2013-01-07 11:53:00,31.0,24.0,-100.00,WSW,245,10.0,13.0,73,0.00,,,-99.99,,2013-01-07 17:53:00,
2013-01-07 12:03:00,31.0,24.0,-100.00,WSW,245,10.0,13.0,73,0.00,,,-99.99,,2013-01-07 18:03:00,
2013-01-07 12:12:00,31.0,24.0,-100.00,West,265,11.0,13.0,74,0.00,,,-99.99,,2013-01-07 18:12:00,
2013-01-07 12:23:00,31.0,24.0,-100.00,WSW,250,12.0,14.0,74,0.00,,,-99.99,,2013-01-07 18:23:00,
2013-01-07 12:32:00,31.0,24.0,-100.00,WSW,245,10.0,13.0,74,0.00,,,-99.99,,2013-01-07 18:32:00,
2013-01-07 12:42:00,31.0,24.0,-100.00,WSW,245,10.0,13.0,74,0.00,,,-99.99,,2013-01-07 18:42:00,
2013-01-07 12:52:00,32.0,25.0,-100.00,WSW,245,10.0,12.0,74,0.00,,,-99.99,,2013-01-07 18:52:00,
2013-01-07 13:03:00,32.0,25.0,-100.00,WSW,245,10.0,12.0,74,0.00,,,-99.99,,2013-01-07 19:03:00,
2013-01-07 13:12:00,32.0,25.0,-100.00,WSW,255,11.0,13.0,74,0.00,,,-99.99,,2013-01-07 19:12:00,
2013-01-07 13:22:00,32.0,25.0,-100.00,WSW,250,12.0,14.0,74,0.00,,,-99.99,,2013-01-07 19:22:00,
2013-01-07 13:33:00,32.0,25.0,-100.00,West,260,11.0,13.0,74,0.00,,,-99.99,,2013-01-07 19:33:00,
2013-01-07 13:42:00,32.0,25.0,-100.00,West,260,11.0,13.0,74,0.00,,,-99.99,,2013-01-07 19:42:00,
2013-01-07 13:52:00,33.0,26.0,-100.00,WSW,245,10.0,12.0,74,0.00,,,-99.99,,2013-01-07 19:52:00,
2013-01-07 14:03:00,33.0,26.0,-100.00,WSW,245,10.0,12.0,74,0.00,,,-99.99,,2013-01-07 20:03:00,
2013-01-07 14:12:00,33.0,26.0,-100.00,West,260,9.0,11.0,74,0.00,,,-99.99,,2013-01-07 20:12:00,
2013-01-07 14:23:00,33.0,26.0,-100.00,West,260,9.0,11.0,74,0.00,,,-99.99,,2013-01-07 20:23:00,
2013-01-07 14:33:00,33.0,26.0,-100.00,WSW,255,11.0,12.0,74,0.00,,,-99.99,,2013-01-07 20:33:00,
2013-01-07 14:42:00,33.0,26.0,-100.00,WSW,250,9.0,12.0,74,0.00,,,-99.99,,2013-01-07 20:42:00,
2013-01-07 14:52:00,33.0,26.0,-100.00,WSW,245,8.0,10.0,74,0.00,,,-99.99,,2013-01-07 20:52:00,
2013-01-07 15:03:00,33.0,26.0,-100.00,WSW,245,8.0,10.0,74,0.00,,,-99.99,,2013-01-07 21:03:00,
2013-01-07 15:12:00,33.0,26.0,-100.00,WSW,255,9.0,11.0,74,0.00,,,-99.99,,2013-01-07 21:12:00,
2013-01-07 15:22:00,33.0,26.0,-100.00,WSW,255,9.0,11.0,75,0.00,,,-99.99,,2013-01-07 21:22:00,
2013-01-07 15:33:00,33.0,26.0,-100.00,WSW,255,9.0,11.0,75,0.00,,,-99.99,,2013-01-07 21:33:00,
2013-01-07 15:42:00,33.0,26.0,-100.00,WSW,255,9.0,11.0,75,0.00,,,-99.99,,2013-01-07 21:42:00,
2013-01-07 15:52:00,32.0,26.0,-100.00,WSW,255,7.0,9.0,76,0.00,,,-99.99,,2013-01-07 21:52:00,
2013-01-07 16:02:00,32.0,26.0,-100.00,WSW,255,7.0,9.0,76,0.00,,,-99.99,,2013-01-07 22:02:00,
2013-01-07 16:12:00,33.0,26.0,-100.00,WSW,255,6.0,9.0,76,0.00,,,-99.99,,2013-01-07 22:12:00,
2013-01-07 16:22:00,33.0,26.0,-100.00,WSW,240,6.0,8.0,76,0.00,,,-99.99,,2013-01-07 22:22:00,
2013-01-07 16:33:00,31.0,25.0,-100.00,WSW,250,7.0,9.0,77,0.00,,,-99.99,,2013-01-07 22:33:00,
2013-01-07 16:42:00,31.0,25.0,-100.00,WSW,250,7.0,9.0,77,0.00,,,-99.99,,2013-01-07 22:42:00,
2013-01-07 16:52:00,30.0,25.0,-100.00,WSW,255,7.0,9.0,79,0.00,,,-99.99,,2013-01-07 22:52:00,
2013-01-07 17:02:00,30.0,25.0,-100.00,WSW,255,7.0,9.0,79,0.00,,,-99.99,,2013-01-07 23:02:00,
2013-01-07 17:12:00,29.0,24.0,-100.00,West,260,6.0,9.0,80,0.00,,,-99.99,,2013-01-07 23:12:00,
2013-01-07 17:22:00,29.0,24.0,-100.00,West,260,7.0,8.0,81,0.00,,,-99.99,,2013-01-07 23:22:00,
2013-01-07 17:33:00,29.0,24.0,-100.00,West,275,6.0,7.0,82,0.00,,,-99.99,,2013-01-07 23:33:00,
2013-01-07 17:42:00,29.0,24.0,-100.00,West,275,6.0,7.0,82,0.00,,,-99.99,,2013-01-07 23:42:00,
2013-01-07 17:52:00,28.0,24.0,-100.00,West,275,4.0,6.0,82,0.00,,,-99.99,,2013-01-07 23:52:00,
2013-01-07 18:02:00,28.0,24.0,-100.00,West,275,4.0,6.0,82,0.00,,,-99.99,,2013-01-08 00:02:00,
2013-01-07 18:12:00,27.0,22.0,-100.00,WSW,255,4.0,4.0,82,0.00,,,-99.99,,2013-01-08 00:12:00,
2013-01-07 18:22:00,26.0,21.0,-100.00,WSW,255,6.0,6.0,83,0.00,,,-99.99,,2013-01-08 00:22:00,
2013-01-07 18:33:00,24.0,20.0,-100.00,SW,235,4.0,5.0,84,0.00,,,-99.99,,2013-01-08 00:33:00,
2013-01-07 18:42:00,24.0,20.0,-100.00,SW,235,4.0,5.0,84,0.00,,,-99.99,,2013-01-08 00:42:00,
2013-01-07 18:52:00,26.0,22.0,-100.00,WSW,250,3.0,4.0,86,0.00,,,-99.99,,2013-01-08 00:52:00,
2013-01-07 19:02:00,26.0,22.0,-100.00,WSW,250,3.0,4.0,86,0.00,,,-99.99,,2013-01-08 01:02:00,
2013-01-07 19:12:00,25.0,21.0,-100.00,SW,220,3.0,4.0,87,0.00,,,-99.99,,2013-01-08 01:12:00,
2013-01-07 19:22:00,23.0,20.0,-100.00,SSW,200,2.0,4.0,87,0.00,,,-99.99,,2013-01-08 01:22:00,
2013-01-07 19:33:00,24.0,21.0,-100.00,WSW,255,2.0,3.0,88,0.00,,,-99.99,,2013-01-08 01:33:00,
2013-01-07 19:42:00,24.0,21.0,-100.00,WSW,255,2.0,3.0,88,0.00,,,-99.99,,2013-01-08 01:42:00,
2013-01-07 19:52:00,24.0,21.0,-100.00,WSW,255,2.0,2.0,89,0.00,,,-99.99,,2013-01-08 01:52:00,
2013-01-07 20:02:00,24.0,21.0,-100.00,WSW,255,2.0,2.0,89,0.00,,,-99.99,,2013-01-08 02:02:00,
2013-01-07 20:12:00,24.0,21.0,-100.00,West,275,2.0,3.0,89,0.00,,,-99.99,,2013-01-08 02:12:00,
2013-01-07 20:22:00,24.0,22.0,-100.00,West,270,6.0,7.0,90,0.00,,,-99.99,,2013-01-08 02:22:00,
2013-01-07 20:32:00,23.0,21.0,-100.00,WNW,300,2.0,4.0,90,0.00,,,-99.99,,2013-01-08 02:32:00,
2013-01-07 20:42:00,23.0,21.0,-100.00,WNW,300,2.0,4.0,90,0.00,,,-99.99,,2013-01-08 02:42:00,
2013-01-07 20:53:00,22.0,20.0,-100.00,West,260,1.0,3.0,91,0.00,,,-99.99,,2013-01-08 02:53:00,
2013-01-07 21:03:00,22.0,20.0,-100.00,West,260,1.0,3.0,91,0.00,,,-99.99,,2013-01-08 03:03:00,
2013-01-07 21:12:00,21.0,19.0,-100.00,WSW,250,3.0,3.0,91,0.00,,,-99.99,,2013-01-08 03:12:00,
2013-01-07 21:22:00,18.0,16.0,-100.00,WSW,240,3.0,4.0,91,0.00,,,-99.99,,2013-01-08 03:22:00,
2013-01-07 21:32:00,19.0,17.0,-100.00,West,260,5.0,6.0,91,0.00,,,-99.99,,2013-01-08 03:32:00,
2013-01-07 21:42:00,19.0,17.0,-100.00,West,260,5.0,6.0,91,0.00,,,-99.99,,2013-01-08 03:42:00,
2013-01-07 21:52:00,17.0,15.0,-100.00,WSW,240,3.0,4.0,91,0.00,,,-99.99,,2013-01-08 03:52:00,
2013-01-07 22:02:00,17.0,15.0,-100.00,WSW,240,3.0,4.0,91,0.00,,,-99.99,,2013-01-08 04:02:00,
2013-01-07 22:12:00,17.0,14.0,-100.00,SW,215,1.0,3.0,91,0.00,,,-99.99,,2013-01-08 04:12:00,
2013-01-07 22:22:00,17.0,15.0,-100.00,SW,225,1.0,2.0,91,0.00,,,-99.99,,2013-01-08 04:22:00,
2013-01-07 22:32:00,19.0,17.0,-100.00,NW,315,2.0,3.0,91,0.00,,,-99.99,,2013-01-08 04:32:00,
2013-01-07 22:42:00,19.0,17.0,-100.00,NW,315,2.0,3.0,91,0.00,,,-99.99,,2013-01-08 04:42:00,
2013-01-07 22:52:00,20.0,18.0,-100.00,NW,320,4.0,6.0,91,0.00,,,-99.99,,2013-01-08 04:52:00,
2013-01-07 23:03:00,20.0,18.0,-100.00,NW,320,4.0,6.0,91,0.00,,,-99.99,,2013-01-08 05:03:00,
2013-01-07 23:12:00,18.0,16.0,-100.00,ENE,60,1.0,5.0,91,0.00,,,-99.99,,2013-01-08 05:12:00,
2013-01-07 23:22:00,16.0,14.0,-100.00,NNW,340,1.0,1.0,91,0.00,,,-99.99,,2013-01-08 05:22:00,
2013-01-07 23:33:00,15.0,13.0,-100.00,North,0,0.0,2.0,91,0.00,,,-99.99,,2013-01-08 05:33:00,
2013-01-07 23:42:00,15.0,13.0,-100.00,North,0,0.0,2.0,91,0.00,,,-99.99,,2013-01-08 05:42:00,
2013-01-07 23:53:00,13.0,11.0,-100.00,SE,125,1.0,2.0,91,0.00,,,-99.99,,2013-01-08 05:53:00,